DMSP 5D-2 F13 DEB

基本信息
目录编号:
42269
目录名称:
DMSP 5D-2 F13 DEB
国际标识:
1995-015GK
轨道中心:
EARTH
物体状态:
已陨落(2023-10-05)
发射日期:
1995-03-24 UTC
轨道信息
数据来源: 国际轨道数据
星历时间: 2023-09-26T05:39:23+0800
半长轴: 6786.304km
偏心率: 0.0018478
轨道倾角: 98.658°
近地点辐角: 15.865°
升交点赤经: 126.521°
平近点角: 344.318°
近地点: 395.629km
远地点: 420.709km
周期: 92.728分钟
每日圈数: 15.529335
详细信息
发射场:
AFWTR
轨道高度:
LEO
数据来源:
AOE Integration Group
参考系:
TEME
时间系统:
UTC
历元类型:
SGP4
2D轨道图
3D轨道图
轨道高度分析图
轨道倾角分析图
轨道综合分析图
查看轨道综合分析图